Morrisville, VT

8:16 PM EDT on October 14, 2019 (GMT -0400)
Morrisville Stowe State

Weather History for KMVL - August, 2019

Change the Weather History Date:

Wednesday, August 14, 2019

  Actual Average Record
Temperature  
Mean Temperature 64 °F 66 °F  
Max Temperature 77 °F 78 °F 91 °F (2002)
Min Temperature 50 °F 54 °F 46 °F (1998)
Degree Days  
Heating Degree Days 1 2  
Month to date heating degree days 18 23  
Since 1 June heating degree days 171 176  
Since 1 July heating degree days 28 53  
Cooling Degree Days 0 3  
Month to date cooling degree days 24 42  
Year to date cooling degree days 206 210  
Since 1 June cooling degree days 205 202  
Growing Degree Days 13 (Base 50)    
Moisture  
Dew Point 53 °F    
Average Humidity 71    
Maximum Humidity 96    
Minimum Humidity 46    
Precipitation  
Precipitation 0.00 in 0.13 in 0.60 in (1948)
Month to date precipitation 1.57 1.93  
Year to date precipitation 25.01 21.66  
Sea Level Pressure  
Sea Level Pressure 29.92 in    
Wind  
Wind Speed 3 mph (NNW)    
Max Wind Speed 13 mph    
Max Gust Speed 17 mph    
Visibility 10 miles    
Events      
T = Trace of Precipitation, MM = Missing Value Source: NWS Daily Summary

Daily Weather History Graph

Daily Weather History Graph

Search for Another Location

Airport or City:

Astronomy

Aug. 14, 2019 Rise Set
Actual Time 5:51 AM EDT 7:57 PM EDT
Civil Twilight 5:19 AM EDT 8:29 PM EDT
Nautical Twilight 4:40 AM EDT 9:08 PM EDT
Astronomical Twilight 3:57 AM EDT 9:51 PM EDT
Moon 7:52 PM EDT (8/14) 4:42 AM EDT (8/14)
Length of Visible Light 15h 09m
Length of Day
14h 06m
Waxing Gibbous, 99% of the Moon is Illuminated
Aug 14
Waxing Gibbous
Aug 15
Full
Aug 23
Last Quarter
Aug 30
New
Sep 5
First Quarter

Hourly Weather History & Observations

Time (EDT) Temp. Dew Point Humidity Pressure Visibility Wind Dir Wind Speed Gust Speed Precip Events Conditions
12:54 AM 53.1 °F 51.1 °F 93% 29.87 in 10.0 mi Calm Calm - N/A   Clear
1:54 AM 51.1 °F 50.0 °F 96% 29.87 in 10.0 mi Calm Calm - N/A   Clear
2:54 AM 52.0 °F 50.0 °F 93% 29.86 in 10.0 mi Calm Calm - N/A   Clear
3:54 AM 51.1 °F 50.0 °F 96% 29.87 in 10.0 mi Calm Calm - N/A   Clear
4:54 AM 51.1 °F 50.0 °F 96% 29.88 in 10.0 mi Calm Calm - N/A   Clear
5:54 AM 51.1 °F 50.0 °F 96% 29.89 in 10.0 mi Calm Calm - N/A   Clear
6:54 AM 53.1 °F 51.1 °F 93% 29.91 in 10.0 mi Calm Calm - N/A   Partly Cloudy
7:54 AM 57.0 °F 54.0 °F 89% 29.92 in 10.0 mi Calm Calm - N/A   Clear
8:54 AM 62.1 °F 55.0 °F 78% 29.93 in 10.0 mi NNE 3.5 mph - N/A   Clear
9:54 AM 68.0 °F 57.0 °F 68% 29.92 in 10.0 mi Calm Calm - N/A   Clear
10:54 AM 71.1 °F 53.1 °F 53% 29.91 in 10.0 mi Calm Calm - N/A   Clear
11:54 AM 75.0 °F 54.0 °F 48% 29.90 in 10.0 mi NNE 4.6 mph - N/A   Clear
12:54 PM 73.0 °F 57.9 °F 59% 29.90 in 10.0 mi North 6.9 mph - N/A   Mostly Cloudy
1:54 PM 73.0 °F 57.0 °F 57% 29.89 in 10.0 mi North 8.1 mph 17.3 mph N/A   Scattered Clouds
2:54 PM 73.9 °F 57.0 °F 55% 29.91 in 10.0 mi NW 8.1 mph - N/A   Partly Cloudy
3:54 PM 73.0 °F 55.0 °F 53% 29.91 in 10.0 mi NNW 5.8 mph - N/A   Clear
4:54 PM 75.0 °F 54.0 °F 48% 29.92 in 10.0 mi NNW 8.1 mph - N/A   Partly Cloudy
5:54 PM 73.9 °F 54.0 °F 50% 29.93 in 10.0 mi NNW 9.2 mph - N/A   Clear
6:54 PM 71.1 °F 55.0 °F 57% 29.95 in 10.0 mi NNW 5.8 mph - N/A   Clear
7:54 PM 66.0 °F 54.0 °F 65% 29.97 in 10.0 mi NNW 3.5 mph - N/A   Clear
8:54 PM 61.0 °F 54.0 °F 78% 29.99 in 10.0 mi Calm Calm - N/A   Clear
9:54 PM 55.9 °F 53.1 °F 90% 30.00 in 10.0 mi Calm Calm - N/A   Clear
10:54 PM 54.0 °F 52.0 °F 93% 30.01 in 10.0 mi Calm Calm - N/A   Clear
11:54 PM 53.1 °F 51.1 °F 93% 30.03 in 10.0 mi Calm Calm - N/A   Clear